Location: Gellin
(53.4498°N, 14.3207°E)
Time: 22:35:26
(UTC+00:00)

Meteor 1-14 Rocket - Pass Details

Date: 03 March 2021
Orbit: 834 x 918 km, 81.3° (Epoch: 12 April)

Event Time Altitude Azimuth Distance (km) Brightness Sun altitude
Rises 17:40:17 0° 171° (S) 3,394 7.2 -9.1°
Reaches altitude 10° 17:42:46 10° 165° (SSE) 2,455 6.5 -9.4°
Maximum altitude 17:48:02 46° 94° (E) 1,118 4.4 -10.2°
Drops below altitude 10° 17:53:17 10° 23° (NNE) 2,460 6.4 -11.0°
Sets 17:55:47 0° 17° (NNE) 3,400 7.2 -11.4°
